Regional Weather Roundup
Issued by NWS

Home | Current Version | Previous Version | Text Only | Print | Product List | Glossary Off
Versions: 1 2 3 4 5 6 7 8 9 10 11 12 13 14 15 16 17 18 19 20 21 22 23 24 25 26 27 28 29 30 31 32 33 34 35 36 37 38 39 40 41 42 43 44 45 46 47 48 49 50

000
ASUS43 KLSX 220007
RWRMO

WEATHER SUMMARY FOR MISSOURI
NATIONAL WEATHER SERVICE SPRINGFIELD MO
700 PM CDT THU MAY 21 2015

NOTE: "FAIR" INDICATES FEW OR NO CLOUDS BELOW 12,000 FEET WITH NO
       SIGNIFICANT WEATHER AND/OR OBSTRUCTIONS TO VISIBILITY.
       CURRENT SKY AND/OR WEATHER CONDITIONS ARE NOT AVAILABLE FOR
       CHILLICOTHE AND FARMINGTON.

MOZ001>031-035>038-043-044-053-054-220100-
...NORTHERN AND WESTERN MISSOURI...

CITY           SKY/WX    TMP DP  RH WIND       PRES   REMARKS
KANSAS CTY INT MOSUNNY   67  43  41 W3        30.19F
6HR MIN TEMP:  62; 6HR MAX TEMP:  68;

KANSAS C DTWN  SUNNY     68  41  37 VRB5      30.18F
6HR MIN TEMP:  63; 6HR MAX TEMP:  69;

LEE`S SUMMIT   SUNNY     66  43  43 W5        30.20F
6HR MIN TEMP:  60; 6HR MAX TEMP:  68;

ST JOSEPH      SUNNY     69  40  34 NW6       30.18F
6HR MIN TEMP:  64; 6HR MAX TEMP:  70;

CHILLICOTHE      N/A     69  45  41 VRB3      30.17S
6HR MIN TEMP:  64; 6HR MAX TEMP:  71;

KIRKSVILLE     SUNNY     68  47  46 W6        30.14S
6HR MIN TEMP:  63; 6HR MAX TEMP:  70;


$$
MOZ066>068-077>081-088>096-101>105-220100-
...SOUTHWEST MISSOURI...

CITY           SKY/WX    TMP DP  RH WIND       PRES   REMARKS
SPRINGFIELD    SUNNY     63  41  44 N6        30.20S
6HR MIN TEMP:  56; 6HR MAX TEMP:  65;

JOPLIN         SUNNY     62  45  53 NE6       30.21F
6HR MIN TEMP:  57; 6HR MAX TEMP:  66;


$$
MOZ032>034-039>042-045>050-055>058-069>072-220100-
...CENTRAL MISSOURI...

CITY           SKY/WX    TMP DP  RH WIND       PRES   REMARKS
COLUMBIA       SUNNY     65  43  44 W7        30.18F
6HR MIN TEMP:  60; 6HR MAX TEMP:  67;

JEFFERSON CITY SUNNY     66  40  38 W7        30.18S
6HR MIN TEMP:  59; 6HR MAX TEMP:  67;

ROLLA          SUNNY     61  41  47 NW5       30.18S
6HR MIN TEMP:  55; 6HR MAX TEMP:  63;

SEDALIA        SUNNY     66  44  45 NW5       30.20F
6HR MIN TEMP:  60; 6HR MAX TEMP:  68;

WHITEMAN AFB   MOSUNNY   65  44  45 VRB5      30.18F
WARRENSBURG    SUNNY     64  41  42 CALM      30.20S
OSAGE BEACH    SUNNY     63  39  42 N3        30.20S

$$
MOZ051-052-059>065-220100-
...EAST CENTRAL MISSOURI...

CITY           SKY/WX    TMP DP  RH WIND       PRES   REMARKS
ST LOUIS INTL  MOSUNNY   65  41  41 W9        30.16F
6HR MIN TEMP:  58; 6HR MAX TEMP:  67;

SPIRIT OF STL  MOSUNNY   64  43  46 W7        30.16F
6HR MIN TEMP:  57; 6HR MAX TEMP:  65;

ST CHARLES     SUNNY     65  41  41 NW8       30.15F
6HR MIN TEMP:  59; 6HR MAX TEMP:  66;


$$
MOZ072>076-082>087-097>100-106>115-220100-
...SOUTH CENTRAL AND SOUTHEAST MISSOURI...

CITY           SKY/WX    TMP DP  RH WIND       PRES   REMARKS
CAPE GIRARDEAU MOSUNNY   60  44  55 N7        30.19R
6HR MIN TEMP:  56; 6HR MAX TEMP:  61;

FARMINGTON     SUNNY     59  39  47 NW8       30.22S
6HR MIN TEMP:  48; 6HR MAX TEMP:  61;

POPLAR BLUFF   LGT RAIN  60  44  55 N6        30.19S
6HR MIN TEMP:  54; 6HR MAX TEMP:  61; 6HR PCP: TRACE;

WEST PLAINS    SUNNY     61  43  51 N5        30.20S
6HR MIN TEMP:  58; 6HR MAX TEMP:  63;


$$


USA.gov is the U.S. government's official web portal to all federal, state and local government web resources and services.